Clearfield, PA

11:36 AM EST on February 13, 2016 (GMT -0500)
Clearfield-Lawrence

Weather History for KFIG - August, 2014

Change the Weather History Date:

Saturday, August 16, 2014

  Actual Average (KDUJ) Record (KDUJ)
Temperature  
Mean Temperature 60 °F 68 °F  
Max Temperature 75 °F 78 °F 91 °F (1995)
Min Temperature 45 °F 57 °F 43 °F (2014)
Degree Days  
Heating Degree Days 5 1  
Month to date heating degree days 16  
Since 1 June heating degree days 125  
Since 1 July heating degree days 40  
Cooling Degree Days 0 4  
Month to date cooling degree days 64  
Year to date cooling degree days 289  
Since 1 June cooling degree days 266  
Growing Degree Days 10 (Base 50)    
Moisture  
Dew Point 49 °F    
Average Humidity 78    
Maximum Humidity 100    
Minimum Humidity 40    
Precipitation  
Precipitation 0.00 in 0.13 in 1.71 in (1997)
Month to date precipitation 2.02  
Sea Level Pressure  
Sea Level Pressure 30.01 in    
Wind  
Wind Speed 2 mph (SW)    
Max Wind Speed 13 mph    
Max Gust Speed 18 mph    
Visibility 6 miles    
Events Fog    
T = Trace of Precipitation, MM = Missing Value Source: NWS Daily Summary

Daily Weather History Graph

Daily Weather History Graph

Search for Another Location

Airport or City:

Trip Planner

Search our weather history database for the weather conditions in past years. The results will help you decide how hot, cold, wet, or windy it might be!

Date:

Astronomy

Aug. 16, 2014 Rise Set
Actual Time 6:24 AM EDT 8:10 PM EDT
Civil Twilight 5:54 AM EDT 8:40 PM EDT
Nautical Twilight 5:18 AM EDT 9:15 PM EDT
Astronomical Twilight 4:40 AM EDT 9:54 PM EDT
Moon 11:49 PM EDT (8/16) 1:12 PM EDT (8/16)
Length of Visible Light 14h 45m
Length of Day
13h 46m
Waning Gibbous, 59% of the Moon is Illuminated
Aug 16
Waning Gibbous
Aug 17
Last Quarter
Aug 25
New
Sep 2
First Quarter
Sep 8
Full

Hourly Weather History & Observations

Time (EDT) Temp. Dew Point Humidity Pressure Visibility Wind Dir Wind Speed Gust Speed Precip Events Conditions
1:54 AM 48.9 °F 48.0 °F 97% 30.03 in 6.0 mi Calm Calm - N/A   Clear
2:05 AM 48.0 °F 46.9 °F 96% 30.03 in 7.0 mi Calm Calm - N/A   Scattered Clouds
2:14 AM 48.0 °F 46.9 °F 96% 30.03 in 9.0 mi Calm Calm - N/A   Mostly Cloudy
2:28 AM 48.9 °F 48.0 °F 97% 30.03 in 1.8 mi Calm Calm - N/A   Overcast
2:36 AM 46.9 °F 46.0 °F 97% 30.04 in 4.0 mi Calm Calm - N/A   Mostly Cloudy
2:54 AM 48.0 °F 46.0 °F 93% 30.03 in 10.0 mi Calm Calm - N/A   Mostly Cloudy
3:08 AM 48.0 °F 48.0 °F 100% 30.03 in 1.8 mi Calm Calm - N/A   Overcast
3:15 AM 48.0 °F 48.0 °F 100% 30.03 in 0.2 mi Calm Calm - N/A Fog Fog
3:54 AM 46.9 °F 46.9 °F 100% 30.03 in 0.2 mi Calm Calm - N/A Fog Fog
4:54 AM 46.9 °F 46.9 °F 100% 30.03 in 0.2 mi Calm Calm - N/A Fog Fog
5:54 AM 46.9 °F 46.0 °F 97% 30.03 in 0.2 mi Calm Calm - N/A Fog Fog
6:54 AM 45.0 °F 45.0 °F 100% 30.04 in 0.2 mi Calm Calm - N/A Fog Fog
7:54 AM 46.9 °F 46.9 °F 100% 30.04 in 0.2 mi Calm Calm - N/A Fog Fog
8:54 AM 48.9 °F 48.9 °F 100% 30.05 in 0.5 mi SSW 4.6 mph - N/A Fog Fog
9:12 AM 50.0 °F 48.9 °F 96% 30.04 in 1.5 mi SW 3.5 mph - N/A   Overcast
9:19 AM 50.0 °F 50.0 °F 100% 30.04 in 3.0 mi South 3.5 mph - N/A   Overcast
9:42 AM 53.1 °F 52.0 °F 96% 30.05 in 10.0 mi Variable 5.8 mph - N/A   Scattered Clouds
9:54 AM 54.0 °F 50.0 °F 86% 30.05 in 10.0 mi SSW 4.6 mph - N/A   Clear
10:54 AM 61.0 °F 52.0 °F 72% 30.03 in 10.0 mi SSW 8.1 mph - N/A   Clear
11:54 AM 64.9 °F 48.9 °F 56% 30.02 in 10.0 mi SW 8.1 mph - N/A   Clear
12:54 PM 69.1 °F 48.9 °F 49% 30.02 in 10.0 mi SSW 10.4 mph - N/A   Clear
1:54 PM 72.0 °F 46.0 °F 40% 30.01 in 10.0 mi West 6.9 mph - N/A   Clear
2:54 PM 73.0 °F 48.0 °F 41% 29.98 in 10.0 mi West 9.2 mph - N/A   Clear
3:54 PM 73.0 °F 48.9 °F 42% 29.97 in 10.0 mi Variable 6.9 mph - N/A   Clear
4:54 PM 75.0 °F 51.1 °F 43% 29.96 in 10.0 mi WSW 10.4 mph 17.3 mph N/A   Clear
5:54 PM 72.0 °F 48.9 °F 44% 29.96 in 10.0 mi SSW 12.7 mph 18.4 mph N/A   Clear
6:54 PM 72.0 °F 50.0 °F 46% 29.95 in 10.0 mi WSW 8.1 mph 17.3 mph N/A   Clear
7:54 PM 68.0 °F 50.0 °F 52% 29.96 in 10.0 mi WSW 4.6 mph - N/A   Clear
8:54 PM 66.0 °F 51.1 °F 59% 29.96 in 10.0 mi WSW 3.5 mph - N/A   Overcast
9:54 PM 64.9 °F 52.0 °F 63% 29.96 in 10.0 mi Calm Calm - N/A   Mostly Cloudy
10:54 PM 63.0 °F 54.0 °F 72% 29.95 in 10.0 mi Calm Calm - N/A   Mostly Cloudy
11:54 PM 62.1 °F 55.0 °F 78% 29.94 in 10.0 mi SSW 4.6 mph - N/A   Clear